[[{"header":{"parameterUnit":"m.s-1","parameterCategory":1,"la1":30.2991,"la2":30.254,"lo1":-89.0895,"lo2":-89.0444,"dy":0.0017,"dx":0.0017,"nx":28,"ny":28,"refTime":"2025-06-21T09:00:00:Z","depth":0,"parameterNumber":2,"parameterNumberName":"U-component_of_WINDS"},"data":[0,0,0,0,0,0,0,0,0,0,0,0,0,0,0,0,0,0,0,0,0,0,0,0,0,0,0,0,0,0,0,0,0,0,0,0,0,0,0,0,0,0,0,0,0,0,0,0,0,0,0,0,0,0,0,0,0,0,1.5582,1.5581,0,1.5514,1.5513,1.5512,1.5395,1.5393,1.5391,1.5389,1.5322,1.5322,1.5323,0,0,0,0,0,0,0,0,0,0,0,0,0,1.5611,1.5611,1.5582,1.5581,1.558,1.5514,1.5513,1.5512,1.5396,1.5393,1.539,1.5388,1.5322,1.5322,1.5323,0,0,0,0,0,0,0,0,0,0,0,0,0,1.5577,1.5611,1.5582,1.5514,1.5507,1.5514,1.5513,1.5512,1.5396,1.5393,1.539,1.5386,1.5322,1.5322,1.5323,1.5391,0,0,1.5324,1.5324,0,0,0,0,0,0,0,0,1.5579,1.5576,1.5525,1.5519,1.5511,1.5459,1.5499,1.5471,1.5397,1.5438,1.5389,1.5385,1.5371,1.5367,1.5361,1.5388,1.5385,1.5324,1.5324,1.5324,1.5325,0,0,0,0,0,0,0,1.5581,1.5578,1.5555,1.5524,1.5516,1.5487,1.5478,1.5493,1.5424,1.5435,1.5426,1.5419,1.5366,1.5361,1.5359,1.5384,1.5324,1.5324,1.5325,1.5325,1.546,1.5463,0,0,0,0,0,0,1.5593,1.5581,1.5557,1.5553,1.5537,1.5489,1.5479,1.5479,1.5423,1.5412,1.5422,1.5414,1.5362,1.5359,1.5356,1.5429,1.5324,1.5325,1.5325,1.5456,1.546,1.5464,0,0,0,0,0,0,1.5594,1.5592,1.556,1.5564,1.5558,1.5492,1.5493,1.548,1.5474,1.5414,1.5401,1.543,1.536,1.5356,1.5382,1.5426,1.5325,1.5325,1.5453,1.5458,1.5462,1.5579,0,0,0,0,0,0,1.5596,1.5593,1.5619,1.5566,1.5558,1.5587,1.5496,1.5481,1.5475,1.5464,1.5418,1.5407,1.5357,1.5382,1.5383,1.5424,1.5326,1.5448,1.5455,1.5461,1.5571,1.5588,1.5602,0,0,0,0,0,1.5597,1.5656,1.5621,1.5619,1.5588,1.559,1.5585,1.5526,1.5479,1.5504,1.5464,1.5408,1.5421,1.5386,1.5386,1.5428,1.5445,1.5453,1.546,1.5564,1.5584,1.5601,0,0,0,0,0,0,1.5718,1.5648,1.5608,1.5651,1.5627,1.557,1.5599,1.5549,1.5539,1.5529,1.5456,1.5446,1.5482,1.5458,1.542,1.549,1.5424,1.5432,1.5504,1.5522,1.5537,1.5541,1.5326,0,0,0,0,0,1.5749,1.5756,1.5695,1.5739,1.5728,1.5667,1.5665,1.562,1.5593,1.5583,1.5545,1.5521,1.5519,1.552,1.5515,1.5568,1.5554,1.5596,1.5612,1.5625,1.5632,1.5654,1.5671,1.5489,1.5489,1.5489,0,0,1.5815,1.5777,1.5786,1.5762,1.5738,1.5746,1.5659,1.5672,1.5676,1.5585,1.5606,1.5578,1.5546,1.5585,1.5601,1.5566,1.5679,1.5634,1.5645,1.5645,1.5664,1.5681,1.5696,1.5494,1.5493,1.5492,0,0,1.5937,1.5911,1.5942,1.592,1.5884,1.5841,1.5849,1.5799,1.5776,1.5797,1.5727,1.5732,1.5731,1.571,1.57,1.5811,1.5758,1.5812,1.5891,1.5914,1.5928,1.5941,1.5978,1.5992,1.582,1.582,1.582,0,1.6023,1.6032,1.5966,1.5982,1.5972,1.5888,1.5919,1.59,1.5865,1.586,1.5823,1.5817,1.579,1.5821,1.5848,1.5844,1.5849,1.5816,1.5932,1.5943,1.5954,1.5988,1.6003,1.5827,1.5826,1.5825,1.5825,0,1.6138,1.6145,1.6175,1.614,1.6135,1.6159,1.6096,1.6098,1.6053,1.6015,1.6035,1.6,1.5985,1.5989,1.5948,1.6014,1.5993,1.5945,1.5877,1.5979,1.601,1.6023,1.5836,1.5834,1.5832,1.583,0,0,1.6335,1.6262,1.6274,1.6255,1.6209,1.6213,1.6232,1.6215,1.6217,1.6196,1.6209,1.6209,1.6162,1.615,1.6105,1.6126,1.6212,1.6074,1.6072,1.6099,1.628,1.6315,1.6331,1.6178,1.618,1.6182,1.6281,0,1.6445,1.6473,1.6413,1.6455,1.6459,1.6378,1.6394,1.6367,1.6331,1.6329,1.629,1.629,1.6231,1.6222,1.6239,1.6199,1.6247,1.6191,1.6188,1.6188,1.6196,1.6348,1.6385,1.6481,1.6293,1.6295,1.6297,0,1.6578,1.656,1.6603,1.655,1.6549,1.6565,1.6543,1.6543,1.651,1.6482,1.6468,1.6414,1.6428,1.6364,1.6382,1.6345,1.634,1.632,1.6322,1.6317,1.6247,1.6345,1.651,1.6524,1.6316,1.6314,1.6313,0,1.6714,1.6701,1.6723,1.6711,1.6651,1.6663,1.6639,1.6602,1.6595,1.6577,1.6571,1.6556,1.6547,1.6535,1.6478,1.6438,1.6502,1.6434,1.6478,1.6479,1.6494,1.6493,1.6658,1.6495,1.6495,1.6495,1.6494,0,1.6842,1.687,1.6783,1.6797,1.6825,1.6756,1.6786,1.6753,1.6721,1.6726,1.6657,1.6663,1.6588,1.6587,1.6542,1.6562,1.6559,1.6536,1.6524,1.6541,1.6544,1.6535,1.6526,1.6498,1.6498,1.6497,1.6496,0,1.6998,1.6941,1.6959,1.69,1.6886,1.6909,1.6858,1.6868,1.6827,1.6834,1.6832,1.6769,1.6762,1.6705,1.6687,1.6657,1.6692,1.6668,1.6703,1.6694,1.674,1.6735,1.6903,1.6921,1.675,1.6752,1.6753,0,1.7083,1.7102,1.7044,1.7041,1.702,1.7018,1.7009,1.6941,1.6935,1.6897,1.6911,1.6899,1.6885,1.6879,1.6832,1.6817,1.679,1.685,1.6788,1.6803,1.6787,1.6786,1.6786,1.6863,1.6865,1.6867,1.6868,0,1.7238,1.7208,1.7198,1.7177,1.7168,1.7149,1.7126,1.7129,1.7053,1.705,1.7042,1.7031,1.7011,1.6999,1.6975,1.695,1.6896,1.6888,1.6897,1.6914,1.6932,1.692,1.6736,1.6885,1.6883,1.6882,1.6881,1.688,1.7358,1.737,1.733,1.732,1.7295,1.7274,1.7279,1.7238,1.723,1.7207,1.7168,1.7165,1.7128,1.709,1.7069,1.7065,1.7034,1.7048,1.7051,1.7054,1.7062,1.6934,1.7061,1.7061,1.706,1.706,1.7059,0,1.7507,1.7477,1.7469,1.7437,1.7429,1.7378,1.7349,1.7345,1.7343,1.7313,1.73,1.729,1.7277,1.7227,1.7209,1.7215,1.719,1.7213,1.721,1.7205,1.7093,1.7086,1.7233,1.7233,1.7233,1.7233,1.7233,1.7233,1.7584,1.76,1.7565,1.7567,1.7536,1.7531,1.7519,1.7498,1.7474,1.7464,1.7453,1.742,1.7382,1.736,1.7345,1.7331,1.7326,1.7357,1.7334,1.723,1.7213,1.7197,1.719,1.7357,1.7357,1.7446,1.7446,1.7447]},{"header":{"parameterUnit":"m.s-1","parameterCategory":1,"la1":30.2991,"la2":30.254,"lo1":-89.0895,"lo2":-89.0444,"dy":0.0017,"dx":0.0017,"nx":28,"ny":28,"refTime":"2025-06-21T09:00:00:Z","depth":0,"parameterNumber":3,"parameterNumberName":"V-component_of_WINDS"},"data":[0,0,0,0,0,0,0,0,0,0,0,0,0,0,0,0,0,0,0,0,0,0,0,0,0,0,0,0,0,0,0,0,0,0,0,0,0,0,0,0,0,0,0,0,0,0,0,0,0,0,0,0,0,0,0,0,0,0,3.7221,3.7222,0,3.7296,3.7297,3.7298,3.7201,3.7197,3.7194,3.719,3.7263,3.7268,3.7273,0,0,0,0,0,0,0,0,0,0,0,0,0,3.6985,3.699,3.7221,3.7222,3.7223,3.7296,3.7297,3.7298,3.7201,3.7197,3.7193,3.7189,3.7261,3.7267,3.7274,0,0,0,0,0,0,0,0,0,0,0,0,0,3.7077,3.6992,3.7221,3.7183,3.7181,3.7296,3.7297,3.7298,3.7202,3.7197,3.7192,3.7187,3.7259,3.7267,3.7275,3.7429,0,0,3.7298,3.7302,0,0,0,0,0,0,0,0,3.7072,3.7086,3.7188,3.7186,3.7183,3.7234,3.7241,3.7342,3.7203,3.7194,3.719,3.7184,3.7257,3.7265,3.729,3.7432,3.7435,3.7299,3.7304,3.7307,3.7309,0,0,0,0,0,0,0,3.7066,3.7082,3.725,3.7189,3.7187,3.716,3.7167,3.7259,3.7254,3.7194,3.7187,3.7198,3.7255,3.7283,3.7291,3.7436,3.7299,3.7306,3.7311,3.7314,3.7704,3.7709,0,0,0,0,0,0,3.7065,3.7077,3.7248,3.7253,3.7114,3.7169,3.7177,3.7223,3.7253,3.7252,3.7202,3.7193,3.7272,3.7282,3.7294,3.7474,3.7307,3.7315,3.7319,3.7698,3.7705,3.7711,0,0,0,0,0,0,3.706,3.7081,3.7245,3.7163,3.7182,3.7179,3.7231,3.7227,3.7255,3.7259,3.7257,3.7233,3.7269,3.7283,3.7395,3.7475,3.7318,3.7325,3.7691,3.77,3.7708,3.7837,0,0,0,0,0,0,3.7054,3.708,3.714,3.7165,3.7187,3.7348,3.7236,3.7232,3.727,3.7258,3.7287,3.7287,3.7266,3.7384,3.7403,3.7483,3.7331,3.7684,3.7695,3.7705,3.7826,3.7849,3.7869,0,0,0,0,0,3.7046,3.7173,3.7144,3.7165,3.7263,3.7353,3.7365,3.734,3.7277,3.7336,3.7337,3.7286,3.7463,3.7396,3.7417,3.7501,3.7679,3.7692,3.7704,3.7816,3.7844,3.7868,0,0,0,0,0,0,3.7157,3.7176,3.7144,3.7284,3.7318,3.7336,3.7411,3.7371,3.7422,3.7409,3.7374,3.7381,3.7501,3.7511,3.7437,3.7649,3.756,3.7578,3.7638,3.7665,3.7686,3.7681,3.7338,0,0,0,0,0,3.7198,3.7272,3.7284,3.7406,3.7425,3.7415,3.7453,3.7431,3.7463,3.7477,3.7487,3.7519,3.7582,3.7624,3.7682,3.7826,3.783,3.7893,3.7915,3.7933,3.7948,3.8022,3.805,3.7753,3.7753,3.7753,0,0,3.7284,3.7303,3.7352,3.7429,3.7452,3.7527,3.7428,3.7512,3.7566,3.7489,3.7596,3.7604,3.7637,3.7766,3.7823,3.7779,3.8031,3.7949,3.7963,3.7969,3.8038,3.8067,3.8092,3.7762,3.776,3.7759,0,0,3.7477,3.7501,3.7604,3.7629,3.7666,3.7658,3.7683,3.7707,3.771,3.7817,3.776,3.7822,3.7932,3.7957,3.7984,3.8184,3.8137,3.8203,3.8316,3.8389,3.8412,3.8433,3.8502,3.8528,3.8219,3.8219,3.8219,0,3.7579,3.7691,3.7662,3.7749,3.7783,3.7717,3.782,3.7845,3.7899,3.7922,3.7872,3.8006,3.8024,3.8156,3.8205,3.823,3.8255,3.82,3.8412,3.8432,3.8451,3.8516,3.8543,3.8227,3.8226,3.8225,3.8224,0,3.7812,3.789,3.7969,3.8023,3.8065,3.816,3.8142,3.8189,3.8161,3.8158,3.8265,3.8284,3.8344,3.8373,3.8348,3.8501,3.8472,3.8418,3.8328,3.8487,3.8548,3.8573,3.8238,3.8235,3.8233,3.8231,0,0,3.808,3.8115,3.8144,3.8166,3.82,3.8259,3.8349,3.8408,3.8447,3.8485,3.8558,3.865,3.8599,3.863,3.8606,3.867,3.8824,3.8607,3.8607,3.8645,3.8991,3.9032,3.9062,3.8793,3.8797,3.8801,3.8988,0,3.8273,3.843,3.8405,3.8556,3.8626,3.8563,3.864,3.8668,3.8667,3.8724,3.872,3.8786,3.8715,3.8733,3.8793,3.8793,3.8893,3.8779,3.8858,3.8861,3.8852,3.9094,3.9138,3.9314,3.9012,3.9016,3.9019,0,3.8519,3.8566,3.8725,3.8745,3.8773,3.8844,3.8894,3.8951,3.8979,3.8973,3.9007,3.897,3.9056,3.8965,3.9082,3.9005,3.9035,3.9039,3.9045,3.9051,3.895,3.9106,3.937,3.9396,3.9057,3.9054,3.9051,0,3.8697,3.88,3.8907,3.8928,3.8955,3.9006,3.9019,3.9043,3.9079,3.9122,3.9144,3.9196,3.9225,3.9265,3.9242,3.9178,3.9362,3.927,3.9358,3.9359,3.94,3.9398,3.9672,3.9421,3.9421,3.942,3.942,0,3.8914,3.9013,3.8987,3.9054,3.9161,3.9129,3.9236,3.9241,3.9262,3.9326,3.9274,3.9335,3.9301,3.9358,3.934,3.9439,3.9452,3.9448,3.9442,3.9453,3.9453,3.9472,3.9459,3.9427,3.9426,3.9424,3.9423,0,3.9132,3.9119,3.9231,3.9247,3.9253,3.9331,3.9343,3.9403,3.9396,3.9478,3.9495,3.9484,3.9549,3.9529,3.9599,3.9587,3.9711,3.969,3.9702,3.9696,3.9786,3.9777,4.0081,4.0118,3.9844,3.9847,3.9849,0,3.9272,3.9346,3.9369,3.9409,3.9426,3.949,3.9526,3.9496,3.9536,3.9572,3.9628,3.9687,3.9734,3.9839,3.9836,3.9888,3.9867,3.997,3.9875,3.9882,3.9867,3.9863,3.9869,3.9989,3.9992,3.9995,3.9997,0,3.952,3.9509,3.9564,3.9616,3.9661,3.97,3.9735,3.977,3.9741,3.9788,3.9853,3.9889,3.996,4.0019,4.0066,4.0076,4.0032,4.0027,4.005,4.0061,4.0065,4.0063,3.9753,4.002,4.0018,4.0016,4.0015,4.0014,3.9702,3.9764,3.9789,3.9851,3.9874,3.9907,3.9963,3.9963,4.0018,4.0073,4.0051,4.0126,4.0149,4.0208,4.0224,4.0281,4.0241,4.0275,4.0283,4.0292,4.0303,4.0056,4.0289,4.0288,4.0288,4.0287,4.0287,0,3.9946,3.9959,4.0016,4.0066,4.0114,4.0068,4.0103,4.0145,4.0212,4.0238,4.0285,4.0358,4.0415,4.0415,4.0467,4.0512,4.0493,4.0527,4.0523,4.0526,4.0336,4.031,4.0541,4.0541,4.0541,4.0541,4.0541,4.0541,4.0079,4.0182,4.0173,4.0284,4.0295,4.0369,4.0393,4.0421,4.0442,4.0527,4.0574,4.0574,4.0589,4.0641,4.069,4.0688,4.0709,4.0751,4.0742,4.0565,4.0539,4.0515,4.0491,4.0756,4.0756,4.0926,4.0928,4.0929]}]]